Location: Bidart
(43.4376°N, 1.5913°W)
Time: 12:23:40
(UTC+00:00)

H-2A DEB - Pass Details

Date: 18 April 2026
Orbit: 585 x 592 km, 98.2° (Epoch: 10 May)

Event Time Altitude Azimuth Distance (km) Brightness Sun altitude
Exits shadow 00:28:05 13° 41° (NE) 1,750 ? -35.6°
Drops below altitude 10° 00:29:01 10° 29° (NNE) 1,928 ? -35.5°
Sets 00:32:01 0° 5° (N) 2,836 ? -35.5°
